GFSGBSN_2pvu_pres_192.txt.gz
Presure
134 90 121 126 121 96 121 114 121 122 129 153 136 141 184 189 121 188 173 178 173 183 184 177 188 177 184 176 176 179 176 167 178 176 185 178 143 155 178 177 176 162 166 161 158 162 169
115 100 137 126 124 107 123 130 181 134 137 139 145 131 168 164 182 181 159 188 184 177 167 172 181 185 181 181 172 172 174 166 183 180 158 151 175 181 158 189 172 180 178 172 168 160 172
129 131 130 128 127 127 126 118 182 128 109 139 141 168 190 182 144 187 178 172 183 155 182 186 193 184 186 180 160 180 170 194 176 168 180 152 153 181 188 159 187 178 175 179 175 171 183
135 122 128 123 132 120 122 127 135 137 122 180 147 191 181 176 188 167 178 179 178 164 185 189 187 180 172 184 159 170 174 189 164 179 167 182 191 178 180 185 188 174 167 202 177 153 156
137 133 134 130 131 117 138 135 130 130 180 185 124 143 173 128 155 177 173 176 175 181 182 182 139 178 172 178 178 153 159 174 165 155 165 169 150 168 175 158 180 195 158 181 164 171 191
133 127 117 128 125 132 127 208 189 135 170 142 171 190 178 184 145 192 185 194 191 166 182 173 170 163 187 176 175 182 156 170 165 158 151 167 150 157 156 164 156 151 160 159 186 146 180
140 123 112 115 201 131 161 192 125 197 193 179 171 151 127 192 179 150 191 134 186 189 183 181 175 171 160 146 161 159 161 158 149 154 166 157 148 155 148 158 174 186 162 183 164 163 204
125 109 135 123 142 175 185 141 184 187 191 179 194 188 174 182 181 180 177 172 205 187 165 169 171 171 163 171 170 174 157 159 157 170 157 152 154 145 187 165 186 159 167 185 189 185 206
138 129 130 124 97 186 166 159 208 205 184 124 155 194 178 126 220 154 177 181 207 180 182 71 117 178 181 194 168 155 174 172 162 188 184 162 165 192 195 178 196 159 181 174 171 193 175
114 134 139 101 104 213 164 184 192 204 182 188 181 175 179 204 185 176 180 145 172 151 157 173 169 145 148 157 174 172 159 160 178 166 192 183 172 173 163 192 193 182 168 163 187 194 199
134 135 139 96 195 191 199 210 183 195 203 165 178 182 201 206 168 155 206 220 140 167 137 155 161 174 184 172 190 167 179 154 165 157 194 196 209 202 154 170 196 171 179 188 191 194 199
141 117 150 185 211 195 157 200 197 185 187 209 224 180 172 172 185 181 155 159 170 177 205 147 155 189 164 181 173 164 166 157 179 177 194 197 200 183 193 197 178 188 189 190 200 203 211
188 131 187 204 206 196 188 191 175 179 204 194 193 180 175 195 166 167 157 180 164 149 164 164 187 174 175 174 150 152 154 175 179 186 193 217 190 206 88 165 187 126 128 204 213 194 214
189 136 189 170 185 200 189 181 190 190 191 166 208 160 210 181 154 190 194 146 150 152 165 170 173 170 149 161 163 160 174 188 188 174 215 215 155 195 108 97 196 195 209 104 208 224 205
198 183 192 198 184 179 180 184 171 192 187 201 182 172 173 170 177 188 165 186 179 176 176 181 170 151 171 162 177 173 189 178 207 220 222 229 209 204 201 205 131 101 198 198 212 200 206
180 185 186 203 179 187 183 188 178 187 181 192 208 192 179 171 202 194 184 181 180 167 172 166 173 172 179 167 179 183 195 213 230 230 212 227 217 211 205 74 200 159 216 192 199 153 211
182 176 188 170 151 179 187 190 181 189 207 196 181 166 179 194 173 183 178 173 175 186 183 178 174 182 178 195 188 185 208 228 224 222 218 213 215 216 208 197 214 218 225 215 207 193 110
201 177 183 196 200 168 181 168 189 177 184 196 203 178 204 153 188 192 191 177 197 188 172 183 180 183 193 192 225 207 225 229 232 223 221 217 225 233 209 209 210 209 190 200 200 207 208
185 190 193 182 172 183 182 177 194 203 177 200 195 197 186 192 193 183 197 192 177 188 191 192 184 206 203 202 191 197 237 229 236 226 230 226 229 221 217 211 186 219 215 85 191 220 135
179 176 183 172 191 194 190 206 175 184 202 190 188 184 192 184 190 185 179 174 193 193 185 181 198 196 201 192 218 233 236 244 242 217 212 226 208 208 214 236 239 202 214 105 152 238 236
172 173 172 185 193 179 185 184 182 200 187 181 181 188 203 185 179 185 196 178 188 196 189 198 185 205 198 235 243 239 244 242 234 223 225 202 245 208 228 213 214 223 235 232 156 242 253
188 173 188 193 175 180 187 170 199 183 181 186 190 197 177 187 189 194 193 188 195 194 207 186 195 217 205 250 252 255 209 204 207 197 250 209 212 215 224 222 226 240 245 241 278 443 423
179 178 183 183 174 193 186 183 176 180 177 197 202 187 185 192 192 195 189 189 201 188 187 203 225 216 243 253 261 266 236 203 215 210 213 215 218 227 246 246 255 268 330 451 389 372 358
191 196 182 185 185 198 176 188 184 203 190 182 200 182 191 194 193 186 196 198 199 213 230 208 242 243 269 265 232 213 220 214 217 223 229 244 247 257 264 275 367 447 394 364 348 351 333
179 193 192 185 187 190 182 192 171 178 186 188 191 189 184 180 194 207 206 200 226 216 244 255 235 249 258 226 222 224 227 228 233 240 248 259 269 277 408 394 392 364 350 352 333 324 323
189 189 194 193 184 194 192 183 192 194 195 187 192 191 199 206 203 205 212 224 230 237 255 254 244 262 226 222 232 231 241 245 253 258 267 297 443 415 404 371 370 335 326 321 321 328 308
180 197 192 200 188 198 193 186 194 200 202 199 184 207 226 222 229 204 230 207 258 257 255 253 260 247 233 240 249 258 264 266 278 344 448 415 406 409 372 368 334 318 313 310 304 300 291
225 195 192 221 225 227 226 224 218 202 211 217 213 229 187 204 198 259 259 256 255 264 268 268 233 241 251 261 269 275 296 382 507 454 416 400 407 367 361 333 311 305 292 285 296 292 291
221 223 225 211 205 208 228 237 237 228 219 232 166 230 207 268 252 261 268 277 246 239 239 249 256 266 274 304 414 425 439 487 481 393 399 391 389 345 339 309 300 293 289 286 279 267 298

GFSGBSN_2pvu_pres_195.txt.gz
Presure
127 106 134 124 116 118 136 95 112 115 121 134 136 122 138 137 148 143 192 125 183 162 188 171 168 164 195 193 188 162 183 169 191 171 172 162 168 168 162 168 149 173 153 173 165 159 172
112 134 93 124 131 111 129 140 113 131 126 139 118 141 152 134 187 197 145 191 151 188 195 182 178 178 173 190 192 186 180 178 167 176 175 167 168 180 169 165 173 150 170 156 155 201 146
132 90 97 125 142 103 145 141 128 130 139 133 131 162 179 96 191 146 191 193 172 191 191 173 189 190 191 184 183 184 176 169 181 179 163 169 167 155 157 158 155 155 159 159 146 163 183
130 122 94 127 134 136 136 124 130 139 134 121 187 125 183 194 133 176 186 168 167 164 203 202 173 169 187 149 182 168 179 184 175 169 152 172 156 162 160 158 183 152 153 149 144 157 165
122 113 132 119 131 141 132 134 128 119 135 130 124 130 139 192 139 169 189 205 187 164 169 174 163 180 194 184 174 165 176 167 160 152 157 161 175 184 166 163 168 156 173 155 173 159 166
102 133 116 106 127 108 93 117 106 150 123 124 133 123 136 193 166 170 179 184 151 182 178 178 178 181 181 173 170 149 172 169 168 160 150 171 164 147 153 158 171 166 184 181 163 210 169
133 135 127 134 141 142 126 121 118 128 176 133 148 115 139 204 178 212 178 179 179 216 188 198 182 208 157 160 161 181 176 143 151 172 150 167 142 155 167 151 192 149 167 160 208 212 196
134 130 124 127 97 110 128 130 142 95 124 154 128 132 135 115 187 166 213 178 182 146 192 169 164 172 170 139 153 177 153 161 160 160 182 156 167 165 176 163 176 155 182 208 192 207 213
153 144 157 135 150 112 167 183 154 140 121 191 167 147 195 157 189 224 163 176 154 174 184 142 188 165 159 183 161 164 153 171 159 176 158 167 167 162 167 174 177 183 202 208 227 213 187
162 197 169 205 188 150 139 181 94 138 183 210 178 200 198 215 201 166 167 172 214 152 150 178 144 146 152 184 165 178 172 187 171 158 160 158 147 162 167 185 206 207 182 214 219 209 214
195 204 190 157 105 168 127 206 193 166 216 202 177 192 201 195 207 187 169 189 174 178 178 188 197 168 164 146 153 149 179 177 157 168 135 182 166 157 164 178 206 218 219 206 213 216 206
223 178 101 178 201 178 156 200 103 147 178 177 201 164 188 197 203 201 198 168 168 183 181 165 170 154 164 159 185 171 184 174 169 176 175 170 168 183 174 231 218 218 211 208 185 215 216
192 211 196 157 210 161 197 199 117 184 181 184 171 202 171 205 188 208 177 177 200 191 194 144 148 185 190 193 179 176 160 178 162 184 152 170 183 193 236 226 170 169 228 237 218 220 218
205 218 206 217 185 188 202 194 173 179 176 171 203 184 201 185 193 193 191 168 190 195 170 167 162 172 189 193 182 152 159 173 175 178 166 160 178 173 247 228 234 225 236 105 161 226 221
214 199 205 177 186 193 182 188 184 188 184 181 200 163 184 202 178 193 199 195 197 176 191 178 182 179 187 166 179 183 174 180 177 184 182 187 210 203 236 235 226 229 95 227 220 224 221
195 201 184 183 203 183 170 189 182 180 181 201 184 186 189 175 197 192 192 204 199 188 180 174 154 184 191 180 172 177 186 175 185 179 189 203 211 138 240 232 228 205 237 236 92 214 207
202 190 180 201 178 180 178 185 196 156 178 175 187 184 195 197 188 182 198 203 172 170 184 190 186 198 187 185 181 175 193 176 194 190 196 208 215 107 238 226 248 251 249 194 215 207 167
181 197 182 195 195 176 181 194 175 173 183 193 184 193 187 180 181 211 185 180 187 194 187 189 195 192 197 181 181 182 190 189 189 184 207 223 239 235 258 250 244 202 196 204 203 217 212
189 182 198 192 192 132 171 203 191 173 196 171 185 188 182 199 188 179 182 182 176 198 188 180 179 198 187 194 182 193 182 198 188 205 216 236 241 240 241 241 222 217 241 152 211 102 72
181 204 174 169 194 188 178 187 189 185 168 184 182 195 187 196 183 200 181 185 181 196 189 183 195 205 185 187 200 197 202 193 216 220 239 240 239 247 199 239 180 209 148 214 214 152 151
204 178 187 186 176 169 177 192 190 171 183 176 192 183 179 189 178 176 179 178 189 194 185 197 190 185 186 196 190 204 196 199 236 216 238 240 242 228 238 256 217 219 222 223 229 119 96
172 181 191 181 162 191 175 194 171 176 166 190 189 176 179 182 175 185 198 176 192 180 196 204 183 199 197 183 203 201 197 219 246 240 239 241 245 252 245 216 142 209 230 240 247 253 264
183 206 194 170 183 167 179 176 181 170 184 190 190 184 178 188 169 175 171 193 182 191 183 180 191 199 190 206 207 212 235 213 251 247 240 243 247 257 68 230 233 232 242 255 267 313 397
180 185 175 183 179 179 176 175 165 184 173 176 187 180 185 189 181 189 188 188 187 179 196 192 193 219 230 216 226 228 263 261 256 255 258 267 235 236 243 247 253 257 281 390 385 369 346
193 190 168 183 200 189 191 190 198 189 190 188 188 180 178 191 193 197 184 169 192 200 198 223 213 214 235 215 259 271 260 262 257 232 242 240 251 262 264 271 436 397 383 376 337 329 343
182 191 191 188 196 195 194 192 192 187 185 181 188 195 192 197 187 177 187 206 207 204 226 219 227 227 231 271 268 267 278 231 239 248 260 260 271 387 445 457 395 364 345 340 325 317 318
196 197 197 196 200 191 170 185 187 203 198 197 194 195 197 194 191 208 231 216 209 226 225 233 234 235 277 271 259 240 242 253 269 274 333 425 460 423 422 402 360 342 329 316 303 289 300
199 196 202 193 197 206 227 208 202 201 201 190 200 203 228 231 205 231 212 224 232 233 231 262 276 273 269 268 261 257 274 284 385 429 424 514 441 427 437 361 337 316 311 306 301 288 295
196 197 210 209 209 211 227 227 223 236 218 234 218 216 226 181 231 234 228 240 253 267 279 236 239 243 249 265 275 285 415 435 446 493 483 442 412 421 370 328 319 313 300 297 292 301 278

GFSGBSN_2pvu_pres_201.txt.gz
Presure
85 110 118 105 128 119 106 115 132 98 122 123 105 125 134 119 93 115 143 141 93 136 124 190 155 119 188 156 202 175 195 189 193 193 175 190 142 181 161 170 148 157 157 160 159 156 165
98 117 114 94 103 83 110 128 119 118 125 125 135 124 126 131 115 112 138 100 151 160 193 162 168 105 134 198 182 202 190 191 180 161 195 190 163 161 177 165 154 156 148 160 146 153 170
116 122 104 116 116 109 124 114 118 104 101 131 125 138 117 131 136 138 140 132 173 195 192 129 163 190 156 187 203 171 175 184 182 188 194 181 169 169 205 144 143 148 163 144 161 194 151
111 118 107 114 120 120 106 128 118 119 115 150 147 142 123 130 134 126 140 114 190 197 175 124 198 188 137 185 182 210 147 187 176 201 174 170 177 157 175 161 157 148 162 165 155 160 182
116 118 112 115 102 122 128 133 138 122 133 140 140 118 128 134 125 134 140 160 214 188 176 143 127 202 217 188 182 134 193 182 180 190 178 160 155 161 149 161 156 152 150 169 171 149 159
119 123 106 129 118 127 115 126 125 108 105 103 124 122 128 135 128 133 207 177 204 176 189 187 182 153 208 187 176 182 173 179 167 173 161 178 156 148 177 164 155 156 163 162 158 152 154
126 109 122 125 119 139 128 126 143 111 142 93 135 138 125 139 122 135 186 197 205 168 203 212 176 185 182 212 198 170 173 189 195 166 175 178 158 193 144 152 173 175 181 186 168 173 168
128 130 138 139 139 120 130 142 148 156 130 138 138 128 136 182 148 137 214 204 170 198 200 172 172 178 169 177 162 171 171 157 175 159 165 152 158 150 161 150 156 159 154 152 169 157 165
138 117 133 142 140 137 113 142 144 134 123 131 138 131 143 143 193 208 181 202 193 212 201 176 197 145 221 175 196 159 180 185 170 180 156 188 180 188 180 167 183 162 176 161 164 175 173
141 135 141 104 138 119 128 152 116 98 131 119 149 187 135 208 212 191 202 192 189 186 168 189 179 182 180 169 162 192 186 158 168 197 183 149 149 179 183 189 191 162 162 195 170 159 177
141 136 106 132 147 126 145 140 135 133 126 136 180 144 169 209 206 211 208 184 179 204 196 172 201 190 171 194 163 188 192 180 171 186 189 155 152 183 151 180 176 183 182 157 180 168 165
97 113 122 131 142 147 114 131 127 119 136 159 145 122 200 174 195 220 194 183 190 186 196 204 172 214 169 205 180 192 178 166 161 167 177 158 164 155 149 164 159 176 182 185 165 157 197
130 130 132 131 136 126 127 154 204 164 212 144 202 189 184 209 204 215 198 198 224 194 176 195 206 186 208 196 176 171 184 170 176 178 166 154 160 167 200 185 151 166 166 175 169 192 211
131 141 118 179 134 128 126 197 155 214 139 221 192 188 206 218 193 204 214 203 178 202 178 168 216 204 208 186 183 181 183 163 185 180 177 180 174 156 182 191 179 164 153 181 186 212 203
139 145 135 139 140 142 143 183 194 197 204 215 195 202 201 191 211 205 200 211 186 173 208 193 193 189 183 187 193 190 180 188 186 172 184 192 187 177 171 178 164 152 165 190 207 209 198
206 210 111 197 198 214 209 199 204 204 206 179 207 185 201 182 200 202 202 208 185 184 178 179 198 177 188 184 181 186 183 191 189 162 175 188 180 170 175 184 171 186 194 202 202 190 220
192 192 187 199 192 201 204 193 186 197 188 184 200 192 192 212 201 201 207 188 183 188 181 195 193 176 186 198 181 196 190 184 185 192 191 180 178 178 172 183 185 202 207 211 202 215 225
194 196 196 202 201 206 200 199 204 193 192 194 182 194 184 196 190 188 185 186 197 175 181 179 175 186 177 190 182 187 179 185 188 193 180 196 179 186 177 195 198 214 213 210 226 228 240
201 194 191 207 206 192 192 200 193 201 190 198 181 192 189 203 186 185 191 177 179 185 190 172 180 183 182 187 182 182 179 192 193 183 193 188 194 194 190 183 205 215 223 174 194 243 247
162 194 169 156 182 187 189 193 186 185 187 185 182 179 193 187 188 181 196 184 196 169 173 176 183 187 187 185 177 182 192 190 187 180 174 186 196 213 195 209 213 226 234 241 241 242 244
151 194 205 187 191 184 193 189 189 188 187 174 188 192 187 177 183 181 189 174 165 183 183 188 186 180 174 176 186 191 184 191 194 188 180 204 226 201 214 223 237 237 245 239 245 121 218
195 188 201 196 192 194 181 195 175 178 173 183 189 174 181 172 181 167 177 181 190 190 188 177 175 190 161 187 183 189 198 201 189 213 205 207 216 216 234 243 240 246 248 254 258 268 234
201 213 192 202 199 193 178 196 177 170 175 186 173 171 186 192 176 170 185 193 188 178 182 191 189 187 189 194 202 183 186 208 208 208 220 232 228 245 256 241 250 264 266 277 258 240 251
189 195 193 198 204 197 178 202 157 188 171 170 197 183 175 175 185 183 192 192 186 196 187 197 185 198 206 200 204 209 211 215 219 225 239 227 242 254 250 253 262 282 247 249 268 280 445
204 196 192 192 201 190 182 153 186 183 168 185 198 181 185 187 175 189 196 186 199 191 198 196 198 206 208 210 213 214 214 175 214 231 231 255 243 247 257 270 275 256 269 299 447 457 396
200 185 194 190 204 190 193 181 192 184 180 189 171 186 183 189 191 185 192 199 170 197 203 208 220 204 215 229 217 218 220 228 235 248 261 256 264 272 272 283 271 309 437 457 437 373 340
191 198 194 201 191 184 205 192 192 188 188 188 188 181 185 177 194 191 189 202 205 194 205 215 215 223 183 220 229 222 232 262 262 266 265 283 281 281 276 340 415 441 460 457 375 346 326
199 204 213 192 192 187 187 193 187 177 186 192 182 193 198 195 192 184 206 212 202 210 208 219 213 227 224 227 230 245 284 262 277 292 290 280 288 402 456 458 489 433 401 356 347 331 324
202 204 212 192 194 196 193 185 196 198 195 193 177 209 206 210 210 209 215 223 211 219 220 227 223 237 235 241 260 272 280 305 288 296 442 436 450 467 462 461 434 372 330 332 338 334 310

GFSGBSN_2pvu_pres_204.txt.gz
Presure
113 111 115 122 115 104 123 114 83 114 110 112 109 105 124 120 135 135 142 116 102 126 118 141 106 120 196 175 199 200 210 178 209 166 191 180 179 192 192 153 143 158 145 161 158 144 157
110 111 112 113 90 116 103 114 118 104 99 118 122 117 113 134 128 139 133 99 134 116 141 135 161 143 153 201 184 184 205 190 207 193 158 184 176 181 189 146 163 146 167 161 150 163 161
121 104 118 111 118 109 117 117 114 95 116 115 90 118 103 113 138 147 142 151 125 126 131 138 163 134 198 186 193 200 189 190 180 180 206 202 160 204 188 169 150 155 173 144 148 155 148
125 112 116 118 116 111 111 117 118 93 119 129 100 132 116 124 141 144 127 128 129 132 124 157 189 204 182 191 184 190 213 188 173 209 193 173 169 195 155 146 182 153 159 160 164 152 148
112 110 109 111 117 107 103 116 112 111 121 122 126 128 123 119 142 136 140 126 128 142 184 135 196 170 164 148 202 181 179 200 175 176 181 153 168 152 159 171 151 164 155 161 151 148 148
118 120 116 120 118 112 114 124 118 127 121 126 126 140 142 142 124 106 114 131 133 134 177 139 127 173 195 192 184 178 130 166 177 157 161 194 167 170 177 178 165 184 158 159 158 147 168
117 112 126 97 109 123 122 119 116 105 127 124 127 137 145 128 132 126 140 126 134 176 143 137 169 180 183 193 192 183 181 160 188 203 180 143 157 228 164 168 149 167 161 156 147 198 150
131 127 116 117 125 131 126 137 127 128 98 139 135 142 146 118 123 155 125 130 134 137 163 184 197 187 189 186 181 172 171 168 164 176 163 158 172 148 195 158 166 143 160 170 183 144 173
124 132 127 124 115 119 133 135 134 131 132 139 124 126 128 130 125 143 136 126 138 216 184 191 181 194 178 186 181 193 181 178 178 177 156 175 163 162 178 151 193 187 166 161 161 148 180
133 127 130 127 130 127 135 124 137 130 139 139 117 132 118 144 144 141 136 112 226 150 184 187 198 182 180 186 208 202 181 175 197 160 192 172 169 152 161 157 152 143 156 145 169 179 170
126 125 133 132 113 135 126 127 128 103 109 139 125 124 142 136 118 141 131 221 216 170 203 198 191 183 170 163 181 203 203 199 196 164 176 194 192 169 181 177 171 163 152 153 177 178 171
139 130 117 125 148 117 126 122 134 116 126 135 134 129 136 140 126 134 150 208 212 206 195 204 192 190 211 189 205 166 186 180 178 198 196 168 177 182 177 187 171 180 163 177 157 183 182
140 142 141 137 126 127 118 141 125 126 118 139 133 164 124 167 130 168 222 225 192 192 208 195 187 215 194 195 190 183 186 168 188 190 183 176 185 166 187 166 152 164 174 174 164 192 179
141 138 119 226 132 132 139 130 132 144 195 202 196 148 161 135 212 223 227 184 204 169 205 202 218 218 187 201 183 199 188 162 174 196 156 177 178 199 184 173 175 157 162 142 179 199 196
222 231 211 132 220 160 195 151 125 125 209 212 121 139 194 203 189 200 198 207 197 196 186 207 194 195 196 183 182 187 187 187 189 176 177 180 172 191 160 187 186 182 177 137 175 162 164
196 204 222 216 204 177 194 164 133 223 199 194 206 206 203 189 201 219 209 196 194 184 200 199 190 190 188 184 176 180 189 195 186 178 178 199 184 165 169 187 179 201 188 194 195 192 197
127 214 178 202 197 191 195 197 197 197 181 207 209 217 209 203 200 208 196 192 200 184 197 190 184 184 187 187 179 195 193 188 179 190 185 189 178 192 198 195 186 202 195 193 196 184 216
203 187 204 163 189 94 202 192 190 214 212 199 203 199 191 196 202 203 195 188 123 197 195 180 184 190 177 170 184 192 175 184 190 181 168 175 172 204 183 193 202 195 203 191 201 215 225
206 198 182 204 190 203 188 154 210 204 178 207 190 213 185 192 197 195 187 186 181 181 188 179 186 174 172 186 185 179 165 189 189 163 181 192 191 201 191 201 203 178 196 168 178 225 206
189 160 193 191 202 172 182 179 196 185 208 165 185 174 184 200 189 185 187 168 184 188 181 179 186 171 187 186 185 179 183 183 189 192 188 198 203 193 208 199 199 206 213 211 220 82 239
193 191 182 180 202 176 175 180 175 199 188 185 197 199 190 191 186 178 185 189 175 179 177 187 175 182 189 183 192 182 187 198 197 188 194 169 193 213 204 213 210 222 213 218 223 235 244
198 193 178 192 178 190 202 185 183 195 192 185 192 195 191 193 184 173 168 188 167 166 176 164 177 187 186 195 188 189 168 197 204 206 210 208 214 213 216 220 222 219 215 224 241 248 258
191 183 183 196 180 179 184 178 190 200 193 195 186 198 183 194 178 186 180 173 192 180 187 186 190 186 188 195 188 191 198 188 210 206 202 219 225 214 228 219 227 228 229 253 260 273 276
181 183 177 191 180 202 185 187 186 191 188 189 183 189 187 193 192 189 191 179 182 193 187 185 160 191 189 192 188 198 201 210 201 214 214 213 225 218 221 224 239 244 268 270 286 278 279
175 194 181 198 187 194 192 182 190 190 196 186 183 193 187 187 186 186 189 191 196 193 181 175 190 199 190 192 194 209 206 211 217 216 228 222 224 223 233 242 263 280 286 282 314 404 444
184 188 183 202 193 181 180 203 184 201 187 188 189 196 181 186 189 191 191 190 183 177 197 202 203 200 192 197 208 201 224 212 222 225 224 231 235 239 254 276 289 301 445 429 418 402 466
197 201 189 188 186 195 202 182 190 191 206 188 186 188 195 191 194 183 184 194 189 191 197 202 194 197 201 207 210 217 223 216 224 228 235 241 248 272 312 400 412 385 388 407 424 469 364
186 191 187 193 194 191 191 194 197 182 192 196 190 195 192 187 198 202 200 182 205 201 192 198 201 207 208 214 222 234 229 238 240 247 261 275 389 443 444 435 424 420 424 444 464 366 342
198 200 197 197 202 206 203 193 192 187 190 199 195 192 203 208 200 216 211 209 199 199 200 185 210 211 226 229 238 239 247 255 273 288 334 473 450 325 431 435 434 430 481 453 358 348 342

GFSGBSN_2pvu_pres_207.txt.gz
Presure
117 114 118 119 110 107 112 112 112 106 108 120 120 118 114 118 108 125 129 127 122 132 136 135 124 133 133 142 148 173 144 123 187 224 192 195 213 195 179 175 171 184 165 171 155 160 166
113 111 111 116 113 121 123 111 116 118 114 126 120 119 109 117 109 130 109 128 138 123 143 114 134 133 131 139 139 206 177 192 203 200 198 188 166 213 170 162 171 192 143 168 158 166 156
115 108 122 109 113 115 104 118 106 125 117 110 109 121 113 123 122 133 124 128 134 140 148 127 126 147 85 140 169 158 200 190 214 181 198 189 207 184 221 190 171 225 157 145 168 161 150
107 113 111 114 113 111 124 108 123 125 106 111 119 108 108 118 119 123 131 125 143 109 130 131 135 127 137 191 186 195 196 186 196 190 193 183 178 181 166 178 172 142 185 147 170 158 150
115 108 117 114 115 111 118 121 118 123 123 121 122 119 121 118 131 117 120 140 99 128 115 146 139 144 134 211 207 184 195 185 181 177 183 165 170 182 176 184 170 155 148 162 168 161 157
115 119 130 136 126 123 130 118 116 110 115 122 128 111 110 131 110 129 134 139 110 110 143 136 133 133 132 151 198 146 201 182 176 186 165 198 167 181 169 193 170 156 214 163 154 167 159
110 104 120 113 120 125 122 120 113 117 123 93 121 128 122 119 135 134 135 145 143 146 144 129 135 133 133 145 187 192 182 206 177 184 161 171 190 164 169 151 159 173 165 142 186 169 150
117 116 110 103 120 110 116 118 111 121 135 131 136 125 116 138 124 134 111 122 122 136 133 134 138 129 193 192 176 185 194 182 184 169 198 189 170 194 162 154 168 145 158 167 171 169 156
134 125 126 122 122 125 125 120 128 132 128 135 133 133 123 107 118 123 135 121 136 130 129 134 143 138 210 199 168 199 185 180 166 166 193 167 163 163 168 183 170 148 152 158 159 157 149
108 109 133 108 132 118 118 117 129 112 120 126 137 123 120 116 121 108 138 134 134 122 133 177 218 183 208 202 205 180 188 180 169 189 181 173 173 170 180 147 171 158 167 164 187 164 162
141 129 123 134 135 132 123 133 110 134 124 141 122 114 125 136 119 133 138 138 133 134 188 216 204 207 202 201 185 214 178 199 182 168 182 170 163 158 164 181 152 188 171 192 172 193 168
133 121 123 125 143 147 116 135 133 114 136 137 134 135 134 141 127 111 129 137 140 133 186 223 222 212 209 190 199 184 205 208 191 178 173 195 194 165 188 194 178 181 202 190 185 149 176
135 133 136 115 120 109 124 124 134 144 134 109 129 134 117 136 136 182 133 135 177 164 206 193 197 214 184 203 195 180 181 182 201 189 167 189 183 189 158 168 172 172 183 168 179 160 170
189 135 141 184 136 113 147 124 143 142 110 129 157 138 141 99 175 193 136 192 133 180 202 227 216 206 197 193 187 210 207 179 187 183 168 190 168 183 177 165 191 181 182 183 190 157 190
180 142 137 178 187 138 197 214 230 213 173 167 149 149 145 221 219 173 182 216 213 203 197 203 203 203 188 189 195 201 176 191 183 182 184 184 182 189 181 179 184 179 177 192 185 199 199
185 208 191 134 164 198 211 138 176 184 177 175 151 170 198 206 187 206 203 219 200 169 193 204 181 206 188 187 194 201 175 196 171 186 181 168 184 179 177 184 173 167 187 190 198 198 200
163 180 194 163 200 154 146 205 210 196 217 214 197 153 192 198 211 217 200 198 197 191 196 191 205 193 194 189 190 186 190 183 178 190 190 188 190 192 163 184 176 189 185 151 202 200 205
220 200 192 203 216 196 220 135 195 129 200 191 214 191 191 237 205 214 194 217 181 188 202 195 202 195 196 177 187 175 176 193 192 175 179 195 189 184 185 189 181 185 77 198 205 79 205
193 155 200 189 219 208 195 178 186 194 183 209 195 192 144 191 225 210 107 196 178 186 196 199 204 196 183 169 187 178 181 195 189 180 186 192 190 188 200 182 204 204 196 188 205 213 214
216 198 188 191 187 187 189 190 160 167 201 196 188 182 198 160 177 194 195 197 181 196 189 200 191 184 187 194 186 187 192 180 180 190 184 192 190 196 200 198 193 187 203 203 203 213 211
199 217 195 181 193 143 183 179 199 197 195 183 201 205 161 189 205 196 206 186 196 180 188 189 204 179 190 190 188 180 192 196 192 192 195 189 198 191 201 194 199 203 204 205 197 219 223
202 188 196 195 188 199 175 187 181 189 178 188 205 181 179 196 196 183 195 177 183 193 184 183 186 189 195 187 188 187 194 178 196 196 198 195 201 204 213 203 202 203 203 191 223 228 226
202 181 182 194 195 180 192 194 131 186 187 199 176 189 198 188 208 180 204 183 185 198 183 185 180 187 191 205 196 193 183 197 190 190 199 195 203 194 211 203 210 215 225 225 235 238 268
194 194 191 183 181 182 195 184 187 158 190 194 182 192 179 194 179 185 182 199 180 186 187 198 184 191 193 188 199 200 199 190 201 200 214 215 210 206 213 219 225 224 228 239 254 273 289
185 185 191 195 187 196 172 197 180 194 188 192 190 188 169 181 193 179 192 183 185 197 188 188 197 189 207 188 196 191 200 198 206 203 205 199 206 215 217 222 232 239 262 282 275 319 424
199 194 165 189 195 194 162 177 181 188 179 176 185 169 179 191 180 186 198 191 176 193 202 201 198 201 198 199 203 201 210 197 206 204 210 209 216 223 223 237 262 290 296 311 413 441 436
214 211 183 174 177 167 200 190 194 177 175 201 181 183 185 181 184 198 183 189 189 205 196 201 179 202 203 193 200 194 203 202 209 212 215 224 227 243 255 298 319 372 419 421 418 417 410
215 196 200 185 185 188 185 199 182 185 196 190 182 189 201 190 198 188 191 199 191 196 201 199 200 207 196 196 199 201 212 218 217 227 237 236 246 316 416 428 438 422 423 422 427 414 416
212 211 207 206 182 184 187 185 184 185 185 187 184 182 187 184 191 200 197 191 204 204 208 208 197 210 207 208 207 222 234 225 235 237 262 445 458 433 451 439 435 426 426 449 469 385 379